TimeEDT,TemperatureF,Dew PointF,Humidity,Sea Level PressureIn,VisibilityMPH,Wind Direction,Wind SpeedMPH,Gust SpeedMPH,PrecipitationIn,Events,Conditions,WindDirDegrees,DateUTC
12:15 AM,74.5,70.7,88,29.95,10.0,Calm,Calm,-,N/A,,Mostly Cloudy,0,2013-10-18 04:15:00
12:35 AM,72.9,70.2,91,29.94,10.0,Calm,Calm,-,N/A,,Mostly Cloudy,0,2013-10-18 04:35:00
12:55 AM,72.0,70.7,96,29.94,10.0,Calm,Calm,-,N/A,,Overcast,0,2013-10-18 04:55:00
1:15 AM,73.0,71.1,93,29.94,10.0,Calm,Calm,-,N/A,,Overcast,0,2013-10-18 05:15:00
1:35 AM,73.6,71.1,92,29.94,10.0,Calm,Calm,-,N/A,,Overcast,0,2013-10-18 05:35:00
1:55 AM,72.9,71.2,95,29.94,10.0,Calm,Calm,-,N/A,,Overcast,0,2013-10-18 05:55:00
2:15 AM,73.0,71.2,94,29.94,10.0,Calm,Calm,-,N/A,,Overcast,0,2013-10-18 06:15:00
2:35 AM,72.7,71.4,96,29.95,10.0,Calm,Calm,-,N/A,,Light Drizzle,0,2013-10-18 06:35:00
2:55 AM,72.7,71.6,96,29.94,10.0,Calm,Calm,-,N/A,,Overcast,0,2013-10-18 06:55:00
3:15 AM,72.5,71.6,97,29.94,10.0,Calm,Calm,-,N/A,,Overcast,0,2013-10-18 07:15:00
3:35 AM,72.7,71.6,96,29.94,10.0,Calm,Calm,-,N/A,,Overcast,0,2013-10-18 07:35:00
3:55 AM,72.5,71.6,97,29.94,10.0,Calm,Calm,-,N/A,,Overcast,0,2013-10-18 07:55:00
4:15 AM,72.3,71.6,98,29.94,10.0,Calm,Calm,-,N/A,,Overcast,0,2013-10-18 08:15:00
4:35 AM,72.5,71.6,97,29.94,10.0,Calm,Calm,-,N/A,,Overcast,0,2013-10-18 08:35:00
4:55 AM,73.4,72.0,95,29.94,10.0,Calm,Calm,-,N/A,,Overcast,0,2013-10-18 08:55:00
5:15 AM,73.4,72.0,95,29.95,10.0,Calm,Calm,-,N/A,,Overcast,0,2013-10-18 09:15:00
5:35 AM,73.0,72.0,96,29.96,10.0,Calm,Calm,-,N/A,,Overcast,0,2013-10-18 09:35:00
5:55 AM,73.4,72.0,95,29.96,10.0,Calm,Calm,-,N/A,,Overcast,0,2013-10-18 09:55:00
6:15 AM,73.0,71.6,95,29.96,10.0,North,3.5,-,N/A,,Overcast,10,2013-10-18 10:15:00
6:35 AM,72.9,70.9,93,29.97,10.0,NNE,3.5,-,N/A,,Overcast,20,2013-10-18 10:35:00
6:55 AM,72.5,70.7,94,29.98,10.0,Calm,Calm,-,N/A,,Overcast,0,2013-10-18 10:55:00
7:15 AM,72.5,70.7,94,29.98,10.0,Calm,Calm,-,N/A,,Overcast,0,2013-10-18 11:15:00
7:35 AM,72.3,70.7,95,29.98,10.0,NNW,5.8,-,N/A,,Overcast,340,2013-10-18 11:35:00
7:55 AM,70.9,67.6,89,29.99,10.0,North,3.5,-,N/A,,Overcast,10,2013-10-18 11:55:00
8:15 AM,69.3,67.5,94,30.01,4.0,Calm,Calm,-,N/A,Rain,Heavy Rain,0,2013-10-18 12:15:00
8:35 AM,68.4,67.5,97,30.02,5.0,NNW,3.5,-,N/A,Rain,Rain,330,2013-10-18 12:35:00
8:55 AM,68.0,67.1,97,30.02,7.0,North,3.5,-,N/A,Rain,Light Rain,360,2013-10-18 12:55:00
9:15 AM,67.6,66.9,98,30.03,7.0,North,4.6,-,N/A,Rain,Heavy Rain,350,2013-10-18 13:15:00
9:35 AM,67.3,66.6,98,30.03,7.0,Calm,Calm,-,N/A,,Overcast,0,2013-10-18 13:35:00
9:55 AM,68.0,67.1,97,30.04,10.0,Calm,Calm,-,N/A,,Overcast,0,2013-10-18 13:55:00
10:15 AM,68.4,67.3,96,30.04,10.0,Calm,Calm,-,N/A,,Overcast,0,2013-10-18 14:15:00
10:35 AM,69.3,67.3,93,30.04,10.0,NNE,3.5,-,N/A,,Overcast,20,2013-10-18 14:35:00
10:55 AM,69.8,67.1,91,30.04,10.0,North,3.5,-,N/A,,Overcast,360,2013-10-18 14:55:00
11:15 AM,70.2,67.5,91,30.05,10.0,Calm,Calm,-,N/A,,Overcast,0,2013-10-18 15:15:00
11:35 AM,70.3,67.5,91,30.05,10.0,Calm,Calm,-,N/A,,Overcast,0,2013-10-18 15:35:00
11:55 AM,71.4,67.6,88,30.05,10.0,Calm,Calm,-,N/A,,Overcast,0,2013-10-18 15:55:00
12:15 PM,72.1,67.3,85,30.04,10.0,North,3.5,-,N/A,,Overcast,350,2013-10-18 16:15:00
12:35 PM,73.2,67.8,83,30.03,10.0,Calm,Calm,-,N/A,,Overcast,0,2013-10-18 16:35:00
12:55 PM,73.0,67.5,83,30.03,10.0,Calm,Calm,-,N/A,,Overcast,0,2013-10-18 16:55:00
1:15 PM,73.8,68.2,83,30.02,10.0,Calm,Calm,-,N/A,,Overcast,0,2013-10-18 17:15:00
1:35 PM,74.3,67.8,80,30.01,10.0,WNW,3.5,-,N/A,,Overcast,300,2013-10-18 17:35:00
1:55 PM,74.5,67.6,79,30.00,10.0,Calm,Calm,-,N/A,,Overcast,0,2013-10-18 17:55:00
2:15 PM,75.0,67.8,78,29.99,10.0,Calm,Calm,-,N/A,,Overcast,0,2013-10-18 18:15:00
2:35 PM,75.4,67.5,76,29.99,10.0,Calm,Calm,-,N/A,,Overcast,0,2013-10-18 18:35:00
2:55 PM,75.9,67.5,75,29.98,10.0,Calm,Calm,-,N/A,,Overcast,0,2013-10-18 18:55:00
3:15 PM,76.3,68.2,76,29.98,10.0,Calm,Calm,-,N/A,,Overcast,0,2013-10-18 19:15:00
3:35 PM,76.5,68.4,76,29.98,10.0,Calm,Calm,-,N/A,,Overcast,0,2013-10-18 19:35:00
3:55 PM,76.6,68.9,77,29.98,10.0,Calm,Calm,-,N/A,,Overcast,0,2013-10-18 19:55:00
4:15 PM,76.6,69.1,77,29.98,10.0,South,3.5,-,N/A,,Overcast,190,2013-10-18 20:15:00
4:35 PM,76.6,69.3,78,29.97,10.0,Calm,Calm,-,N/A,,Overcast,0,2013-10-18 20:35:00
4:55 PM,76.3,69.4,79,29.97,10.0,Calm,Calm,-,N/A,,Overcast,0,2013-10-18 20:55:00
5:15 PM,76.3,69.8,80,29.97,10.0,Calm,Calm,-,N/A,,Overcast,0,2013-10-18 21:15:00
5:35 PM,76.1,70.0,81,29.97,10.0,Calm,Calm,-,N/A,,Overcast,0,2013-10-18 21:35:00
5:55 PM,75.2,70.2,84,29.97,10.0,Calm,Calm,-,N/A,,Overcast,0,2013-10-18 21:55:00
6:15 PM,75.2,70.7,86,29.97,10.0,Calm,Calm,-,N/A,,Overcast,0,2013-10-18 22:15:00
6:35 PM,75.0,70.7,86,29.97,10.0,Calm,Calm,-,N/A,,Overcast,0,2013-10-18 22:35:00
6:55 PM,74.3,71.4,91,29.98,10.0,Calm,Calm,-,N/A,,Overcast,0,2013-10-18 22:55:00
7:15 PM,73.6,71.6,93,29.97,10.0,Calm,Calm,-,N/A,,Overcast,0,2013-10-18 23:15:00
7:35 PM,73.2,72.0,96,29.98,10.0,Calm,Calm,-,N/A,,Overcast,0,2013-10-18 23:35:00
7:55 PM,72.9,72.0,97,29.98,10.0,Calm,Calm,-,N/A,,Overcast,0,2013-10-18 23:55:00
8:15 PM,73.4,71.8,95,29.97,10.0,Calm,Calm,-,N/A,,Overcast,0,2013-10-19 00:15:00
8:35 PM,72.9,72.0,97,29.98,10.0,Calm,Calm,-,N/A,,Overcast,0,2013-10-19 00:35:00
8:55 PM,72.7,72.1,98,29.98,10.0,Calm,Calm,-,N/A,,Overcast,0,2013-10-19 00:55:00
9:15 PM,72.9,72.3,98,29.98,10.0,Calm,Calm,-,N/A,,Overcast,0,2013-10-19 01:15:00
9:35 PM,72.7,72.1,98,29.99,10.0,Calm,Calm,-,N/A,,Overcast,0,2013-10-19 01:35:00
9:55 PM,73.0,71.6,95,29.98,10.0,Calm,Calm,-,N/A,,Overcast,0,2013-10-19 01:55:00
10:15 PM,72.5,71.6,97,29.99,10.0,Calm,Calm,-,N/A,,Overcast,0,2013-10-19 02:15:00
10:35 PM,72.5,71.8,98,29.99,10.0,Calm,Calm,-,N/A,,Overcast,0,2013-10-19 02:35:00
10:55 PM,72.5,71.8,98,29.99,10.0,Calm,Calm,-,N/A,,Overcast,0,2013-10-19 02:55:00
11:15 PM,72.5,71.6,97,29.99,10.0,Calm,Calm,-,N/A,,Overcast,0,2013-10-19 03:15:00
11:35 PM,72.5,71.8,98,29.99,10.0,Calm,Calm,-,N/A,,Overcast,0,2013-10-19 03:35:00
11:55 PM,72.5,71.8,98,29.99,10.0,Calm,Calm,-,N/A,,Overcast,0,2013-10-19 03:55:00